Regional Weather Roundup
Issued by NWS

Home | Current Version | Previous Version | Graphics & Text | Print | Product List | Glossary On
Versions: 1 2 3 4 5 6 7 8 9 10 11 12 13 14 15 16 17 18 19 20 21 22 23 24 25 26 27 28 29 30 31 32 33 34 35 36 37 38 39 40 41 42 43 44 45 46 47 48 49 50
000
ASUS43 KLMK 280602
RWRKY
KENTUCKY REGIONAL WEATHER ROUNDUP
NATIONAL WEATHER SERVICE LOUISVILLE KY
200 AM EDT WED JUN 28 2017

NOTE "FAIR" INDICATES FEW OR NO CLOUDS BELOW 12,000 FEET
WITH NO SIGNIFICANT WEATHER AND/OR OBSTRUCTIONS TO VISIBILITY.

KYZ001>023-026-027-061>063-070>075-280700-
WESTERN AND SOUTH CENTRAL KENTUCKY

CITY           SKY/WX    TMP DP  RH WIND       PRES   REMARKS
PADUCAH        CLEAR     65  56  72 SE6       30.07S
HENDERSON      CLEAR     56  53  90 CALM      30.10
OWENSBORO      CLEAR     62  57  83 CALM      30.11S
HOPKINSVILLE   CLEAR     62  55  77 CALM      30.10S
BOWLING GREEN  CLEAR     61  57  87 CALM      30.12S
GLASGOW        NOT AVBL
$$

KYZ024-025-028>034-038-045-046-053-280700-
NORTH CENTRAL KENTUCKY

CITY           SKY/WX    TMP DP  RH WIND       PRES   REMARKS
LOUISVILLE/SDF CLEAR     66  51  58 CALM      30.13S
LOUISVILLE/LOU CLEAR     63  52  67 CALM      30.13F
FORT KNOX      CLEAR     55  54  96 CALM      30.11F
$$

KYZ035>037-039>044-047>052-055>060-089>105-280700-
NORTHEAST KENTUCKY

CITY           SKY/WX    TMP DP  RH WIND       PRES   REMARKS
LEXINGTON      CLEAR     56  49  77 S5        30.16R
COVINGTON      PTCLDY    55  54  96 S3        30.14S
FRANKFORT      CLEAR     56  51  84 CALM      30.14R
$$

KYZ054-064>069-076>088-106>120-280700-
SOUTHEAST KENTUCKY

CITY           SKY/WX    TMP DP  RH WIND       PRES   REMARKS
JACKSON        CLEAR     59  49  69 CALM      30.17R
LONDON         CLEAR     56  51  84 CALM      30.16S
SOMERSET       NOT AVBL
MIDDLESBORO    CLEAR     53  53  97 CALM      30.18S
MONTICELLO     CLEAR     53  51  93 NE9       30.17S
$$





USA.gov is the U.S. government's official web portal to all federal, state and local government web resources and services.